Location: Unspecified
(0.0000°N, 0.0000°E)
Time: 21:19:14
(UTC+01:00)

Iridium 47 - Visible Passes

Search period start: 07 December 2016 00:00
Search period end: 17 December 2016 00:00
Orbit: 776 x 779 km, 86.4° (Epoch: 07 December)

Date Brightness Start Highest point End Pass type
(mag) Time Alt. Az. Time Alt. Az. Time Alt. Az.
07 Dec 7.1 05:31:47 10° NNE 05:36:12 28° E 05:40:36 10° SSE visible
08 Dec 8.0 05:00:39 10° ENE 05:02:45 12° E 05:04:51 10° ESE visible
08 Dec 8.2 19:14:38 10° WSW 19:16:42 12° W 19:18:46 10° WNW visible
09 Dec 5.0 06:04:30 10° N 06:09:42 80° W 06:14:56 10° S visible
10 Dec 6.1 05:31:19 10° NNE 05:36:15 45° E 05:41:13 10° SSE visible
11 Dec 7.5 04:59:00 10° NE 05:02:49 21° E 05:06:37 10° SE visible
12 Dec 5.2 06:04:46 10° NNW 06:09:46 49° W 06:14:48 10° SSW visible
13 Dec 5.2 05:31:08 10° N 05:36:19 75° E 05:41:32 10° S visible
14 Dec 6.6 04:58:14 10° NNE 05:02:52 33° E 05:07:31 10° SSE visible
15 Dec 7.7 04:26:33 10° ENE 04:29:26 15° E 04:32:18 10° SE visible
15 Dec 5.8 06:05:20 10° NNW 06:09:50 30° W 06:14:22 10° SSW visible
16 Dec 4.9 05:32:12 16° N 05:36:23 68° W 05:41:35 10° S visible
